Regional Weather Roundup
Issued by NWS

Home | Current Version | Previous Version | Text Only | Print | Product List | Glossary On
Versions: 1 2 3 4 5 6 7 8 9 10 11 12 13 14 15 16 17 18 19 20 21 22 23 24 25 26 27 28 29 30 31 32 33 34 35 36 37 38 39 40 41 42 43 44 45 46 47 48 49 50
000
ASUS43 KBIS 011901
RWRND

NORTH DAKOTA REGIONAL WEATHER ROUNDUP
NATIONAL WEATHER SERVICE BISMARCK ND
100 PM CST SUN FEB 01 2015

NOTE: "FAIR" INDICATES FEW OR NO CLOUDS BELOW 12,000 FEET WITH NO
SIGNIFICANT WEATHER AND/OR OBSTRUCTIONS TO VISIBILITY.


NDZ001>003-009>011-017-012000-
NORTHWEST NORTH DAKOTA

CITY           SKY/WX    TMP DP  RH WIND       PRES   REMARKS
WILLISTON      SUNNY      2  -6  69 SW9       30.41F WCI -13
MINOT          SUNNY      0 -15  49 S7        30.42F WCI -13
MINOT AFB      SUNNY      1 -12  55 SW2       30.42F
$$

NDZ018>021-031>035-040>046-012000-
SOUTHWEST NORTH DAKOTA

CITY           SKY/WX    TMP DP  RH WIND       PRES   REMARKS
BISMARCK       SUNNY      2 -13  49 VRB6      30.48F WCI  -9
DICKINSON      SUNNY      0  -9  65 W6        30.34F WCI -12
GARRISON         N/A     -2 -14  56 SW6       30.43F WCI -14
HETTINGER ARPT SUNNY      2  -5  72 W10       30.38F WCI -14
$$

NDZ004>008-012>016-024-026-027-054-012000-
NORTHEAST NORTH DAKOTA

CITY           SKY/WX    TMP DP  RH WIND       PRES   REMARKS
GRAND FORKS    MOSUNNY   -2 -15  54 N8        30.54F WCI -17
GRND FRKS AFB  SUNNY     -1 -16  49 N8        30.53F WCI -16
DEVILS LAKE    SUNNY     -4 -18  50 W7        30.45F WCI -18
$$

NDZ022-023-025-028>030-036>039-047>053-012000-
SOUTHEAST NORTH DAKOTA

CITY           SKY/WX    TMP DP  RH WIND       PRES   REMARKS
FARGO          FAIR       3 -12  49 N15G23    30.48F WCI -16
JAMESTOWN      SUNNY      1 -14  49 N12       30.45F WCI -16
$$




USA.gov is the U.S. government's official web portal to all federal, state and local government web resources and services.